User: anonymous   Login
Location: ???????
(55.4362°N, 38.1183°E)
Time: 05:02:10
(UTC+00:00)
Language:

BEESAT - Orbit

View from above orbital plane
View from above orbital plane
View from above satellite
View from above satellite

Ground track
Ground track

The orbit data is extracted from the following two-line orbital elements,

1 35933U 09051C   21338.81361421  .00000238  00000-0  64305-4 0  9996
2 35933  98.5813 185.8337 0004869 305.0525  55.0215 14.56673294647834
Epoch (UTC): 04 December 2021 19:31:36
Eccentricity: 0.0004869
inclination: 98.5813°
perigee height: 700 km
apogee height: 707 km
right ascension of ascending node: 185.8337°
argument of perigee: 305.0525°
revolutions per day: 14.56673294
mean anomaly at epoch: 55.0215°
orbit number at epoch: 64783

The dashed part of the orbit path shows where the satellite is in the earth's shadow,  

DLR